| time (UTC) | temp F | wind direction | speed MPH | gust MPH | rain 1hr in | rain 24hr in | rain mn in | humidity % | barometer mb |
| 20260901071710 | 70 | 276 | 7.0 | 18.0 | 0.00 | 0.14 | 0.00 | 77 | 1018.4 |
| 20260901071306 | 70 | 262 | 11.0 | 18.0 | 0.00 | 0.14 | 0.00 | 76 | 1018.4 |
| 20260901071159 | 70 | 293 | 13.0 | 18.0 | 0.00 | 0.14 | 0.00 | 76 | 1018.4 |
| 20260901070710 | 70 | 300 | 8.0 | 18.0 | 0.00 | 0.14 | 0.00 | 76 | 1018.4 |
| 20260901070306 | 71 | 284 | 11.0 | 21.0 | 0.00 | 0.14 | 0.00 | 76 | 1018.4 |
| 20260901070159 | 71 | 269 | 10.0 | 21.0 | 0.00 | 0.14 | 0.00 | 76 | 1018.4 |
| 20260901065653 | 71 | 294 | 13.0 | 21.0 | 0.00 | 0.34 | 0.00 | 77 | 1018.4 |
| 20260901065306 | 70 | 288 | 12.0 | 21.0 | 0.00 | 0.34 | 0.00 | 77 | 1018.3 |
| 20260901065202 | 70 | 300 | 13.0 | 21.0 | 0.00 | 0.34 | 0.00 | 78 | 1018.3 |
| 20260901064731 | 70 | 290 | 10.0 | 16.0 | 0.00 | 0.34 | 0.00 | 83 | 1018.5 |
| 20260901064323 | 70 | 259 | 9.0 | 16.0 | 0.00 | 0.34 | 0.00 | 83 | 1018.4 |
| 20260901064218 | 70 | 284 | 8.0 | 10.0 | 0.00 | 0.34 | 0.00 | 83 | 1018.3 |
| 20260901063706 | 70 | 332 | 5.0 | 8.0 | 0.00 | 0.34 | 0.00 | 81 | 1017.7 |
| 20260901063303 | 70 | 302 | 3.0 | 5.0 | 0.00 | 0.34 | 0.00 | 82 | 1017.5 |
| 20260901063156 | 70 | 309 | 2.0 | 5.0 | 0.00 | 0.34 | 0.00 | 82 | 1017.4 |
| 20260901062705 | 70 | 163 | 4.0 | 6.0 | 0.00 | 0.34 | 0.00 | 81 | 1017.3 |
| 20260901062309 | 71 | 155 | 5.0 | 7.0 | 0.00 | 0.34 | 0.00 | 81 | 1017.2 |
| 20260901062155 | 71 | 159 | 5.0 | 7.0 | 0.00 | 0.34 | 0.00 | 80 | 1017.2 |
| 20260901061704 | 71 | 150 | 5.0 | 7.0 | 0.00 | 0.34 | 0.00 | 80 | 1017.1 |
| 20260901061301 | 71 | 111 | 1.0 | 5.0 | 0.00 | 0.34 | 0.00 | 78 | 1017.1 |
| 20260901061154 | 71 | 128 | 1.0 | 6.0 | 0.00 | 0.34 | 0.00 | 79 | 1017.1 |
| 20260901060705 | 71 | 278 | 2.0 | 6.0 | 0.00 | 0.34 | 0.00 | 78 | 1017.2 |
| 20260901060302 | 72 | 308 | 3.0 | 7.0 | 0.00 | 0.34 | 0.00 | 80 | 1017.3 |
| 20260901060154 | 72 | 269 | 2.0 | 7.0 | 0.00 | 0.34 | 0.00 | 80 | 1017.3 |
| 20260901055708 | 72 | 165 | 4.0 | 7.0 | 0.00 | 0.34 | 0.34 | 80 | 1017.2 |
| 20260901055301 | 72 | 132 | 1.0 | 3.0 | 0.00 | 0.34 | 0.34 | 78 | 1017.1 |
| 20260901055157 | 72 | 144 | 0.0 | 1.0 | 0.00 | 0.34 | 0.34 | 78 | 1017.0 |
| 20260901054707 | 72 | 14 | 0.0 | 2.0 | 0.00 | 0.34 | 0.34 | 78 | 1016.9 |
| 20260901054303 | 72 | 14 | 0.0 | 3.0 | 0.00 | 0.34 | 0.34 | 75 | 1016.7 |
| 20260901054156 | 72 | 14 | 0.0 | 3.0 | 0.00 | 0.34 | 0.34 | 73 | 1016.7 |
| 20260901053705 | 72 | 15 | 1.0 | 5.0 | 0.00 | 0.34 | 0.34 | 72 | 1016.6 |
| 20260901053302 | 72 | 22 | 3.0 | 5.0 | 0.00 | 0.34 | 0.34 | 74 | 1016.5 |
| 20260901053156 | 72 | 17 | 3.0 | 5.0 | 0.00 | 0.34 | 0.34 | 74 | 1016.5 |
| 20260901052704 | 72 | 27 | 2.0 | 4.0 | 0.00 | 0.34 | 0.34 | 75 | 1016.4 |
| 20260901052300 | 73 | 344 | 2.0 | 4.0 | 0.00 | 0.34 | 0.34 | 75 | 1016.4 |
| 20260901052154 | 73 | 329 | 2.0 | 4.0 | 0.00 | 0.34 | 0.34 | 75 | 1016.3 |
| 20260901051704 | 73 | 347 | 2.0 | 5.0 | 0.00 | 0.34 | 0.34 | 73 | 1016.3 |
| 20260901051320 | 73 | 31 | 4.0 | 6.0 | 0.00 | 0.34 | 0.34 | 70 | 1016.3 |
| 20260901051155 | 72 | 37 | 4.0 | 6.0 | 0.00 | 0.34 | 0.34 | 70 | 1016.3 |
| 20260901050706 | 73 | 40 | 4.0 | 5.0 | 0.00 | 0.34 | 0.34 | 71 | 1016.3 |
| 20260901050302 | 73 | 45 | 3.0 | 4.0 | 0.00 | 0.34 | 0.34 | 71 | 1016.3 |
| 20260901050155 | 73 | 44 | 3.0 | 4.0 | 0.00 | 0.34 | 0.34 | 71 | 1016.3 |
| 20260901045705 | 73 | 36 | 2.0 | 4.0 | 0.00 | 0.34 | 0.34 | 73 | 1016.1 |
| 20260901045258 | 73 | 360 | 2.0 | 4.0 | 0.00 | 0.34 | 0.34 | 71 | 1016.1 |
| 20260901045209 | 73 | 355 | 2.0 | 3.0 | 0.00 | 0.34 | 0.34 | 71 | 1016.1 |
| 20260901044658 | 74 | 360 | 2.0 | 5.0 | 0.00 | 0.34 | 0.34 | 70 | 1016.1 |
| 20260901044254 | 74 | 30 | 3.0 | 6.0 | 0.00 | 0.34 | 0.34 | 67 | 1016.3 |
| 20260901044207 | 74 | 34 | 3.0 | 6.0 | 0.00 | 0.34 | 0.34 | 67 | 1016.3 |
| 20260901043656 | 74 | 61 | 3.0 | 5.0 | 0.00 | 0.34 | 0.34 | 68 | 1016.4 |
| 20260901043252 | 74 | 67 | 3.0 | 6.0 | 0.00 | 0.34 | 0.34 | 67 | 1016.5 |
| 20260901043206 | 74 | 69 | 3.0 | 8.0 | 0.00 | 0.34 | 0.34 | 67 | 1016.5 |
| 20260901042659 | 74 | 44 | 4.0 | 8.0 | 0.00 | 0.34 | 0.34 | 67 | 1016.3 |
| 20260901042253 | 74 | 54 | 6.0 | 8.0 | 0.00 | 0.34 | 0.34 | 67 | 1016.3 |
| 20260901042208 | 74 | 38 | 6.0 | 9.0 | 0.00 | 0.34 | 0.34 | 66 | 1016.3 |
| 20260901041658 | 74 | 37 | 4.0 | 11.0 | 0.00 | 0.34 | 0.34 | 63 | 1016.4 |
| 20260901041315 | 74 | 35 | 5.0 | 12.0 | 0.00 | 0.34 | 0.34 | 64 | 1016.5 |
| 20260901041226 | 74 | 54 | 5.0 | 12.0 | 0.00 | 0.34 | 0.34 | 64 | 1016.4 |
| 20260901040655 | 73 | 42 | 6.0 | 16.0 | 0.00 | 0.34 | 0.34 | 66 | 1016.4 |
| 20260901040251 | 73 | 336 | 5.0 | 22.0 | 0.00 | 0.34 | 0.34 | 67 | 1016.2 |
| 20260901040205 | 73 | 351 | 5.0 | 22.0 | 0.00 | 0.34 | 0.34 | 67 | 1016.2 |
| 20260901035713 | 73 | 337 | 14.0 | 22.0 | 0.00 | 0.34 | 0.34 | 65 | 1015.9 |
| 20260901035327 | 72 | 355 | 13.0 | 23.0 | 0.00 | 0.34 | 0.34 | 69 | 1016.0 |
| 20260901035219 | 72 | 16 | 14.0 | 23.0 | 0.00 | 0.34 | 0.34 | 69 | 1016.0 |
| 20260901034728 | 72 | 329 | 16.0 | 23.0 | 0.00 | 0.34 | 0.34 | 71 | 1016.5 |
| 20260901034301 | 72 | 331 | 16.0 | 21.0 | 0.00 | 0.34 | 0.34 | 73 | 1016.8 |
| 20260901034155 | 72 | 315 | 14.0 | 21.0 | 0.00 | 0.34 | 0.34 | 73 | 1016.8 |
| 20260901033704 | 72 | 319 | 14.0 | 18.0 | 0.00 | 0.34 | 0.34 | 75 | 1017.7 |
| 20260901033301 | 72 | 303 | 12.0 | 16.0 | 0.00 | 0.34 | 0.34 | 75 | 1018.3 |
| 20260901033154 | 73 | 318 | 12.0 | 16.0 | 0.00 | 0.34 | 0.34 | 75 | 1018.5 |
| 20260901032723 | 73 | 273 | 11.0 | 18.0 | 0.00 | 0.34 | 0.34 | 73 | 1018.8 |
| 20260901032258 | 73 | 266 | 10.0 | 19.0 | 0.00 | 0.34 | 0.34 | 74 | 1018.5 |
| 20260901032211 | 73 | 286 | 10.0 | 19.0 | 0.00 | 0.34 | 0.34 | 74 | 1018.5 |
| 20260901031658 | 74 | 279 | 11.0 | 23.0 | 0.00 | 0.34 | 0.34 | 71 | 1018.4 |
| 20260901031255 | 75 | 271 | 12.0 | 32.0 | 0.00 | 0.34 | 0.34 | 68 | 1018.5 |
| 20260901031152 | 75 | 277 | 13.0 | 32.0 | 0.00 | 0.34 | 0.34 | 68 | 1018.5 |
| 20260901030701 | 75 | 243 | 18.0 | 32.0 | 0.00 | 0.34 | 0.34 | 68 | 1018.5 |
| 20260901030257 | 75 | 291 | 13.0 | 26.0 | 0.00 | 0.34 | 0.34 | 70 | 1018.4 |
| 20260901030228 | 75 | 317 | 13.0 | 26.0 | 0.00 | 0.34 | 0.34 | 70 | 1018.5 |
| 20260901025657 | 75 | 244 | 12.0 | 23.0 | 0.00 | 0.34 | 0.34 | 68 | 1018.7 |
| 20260901025253 | 75 | 267 | 13.0 | 23.0 | 0.00 | 0.34 | 0.34 | 67 | 1018.5 |
| 20260901025206 | 75 | 295 | 14.0 | 25.0 | 0.00 | 0.34 | 0.34 | 67 | 1018.5 |
| 20260901024652 | 75 | 229 | 15.0 | 25.0 | 0.00 | 0.34 | 0.34 | 68 | 1018.7 |
| 20260901024307 | 75 | 229 | 17.0 | 25.0 | 0.00 | 0.34 | 0.34 | 67 | 1018.8 |
| 20260901024201 | 75 | 244 | 17.0 | 25.0 | 0.00 | 0.34 | 0.34 | 67 | 1018.8 |
| 20260901023710 | 75 | 238 | 17.0 | 31.0 | 0.00 | 0.34 | 0.34 | 67 | 1018.8 |
| 20260901023307 | 75 | 233 | 17.0 | 31.0 | 0.00 | 0.34 | 0.34 | 67 | 1018.8 |
| 20260901023159 | 76 | 256 | 20.0 | 31.0 | 0.00 | 0.34 | 0.34 | 67 | 1018.9 |
| 20260901022709 | 76 | 228 | 11.0 | 18.0 | 0.00 | 0.34 | 0.34 | 68 | 1018.5 |
| 20260901022306 | 77 | 282 | 12.0 | 22.0 | 0.00 | 0.34 | 0.34 | 67 | 1018.3 |
| 20260901022218 | 77 | 261 | 12.0 | 22.0 | 0.00 | 0.34 | 0.34 | 66 | 1018.3 |
| 20260901021704 | 77 | 300 | 13.0 | 22.0 | 0.00 | 0.34 | 0.34 | 67 | 1017.8 |
| 20260901021301 | 78 | 249 | 10.0 | 20.0 | 0.00 | 0.34 | 0.34 | 68 | 1017.7 |
| 20260901021158 | 78 | 250 | 9.0 | 20.0 | 0.00 | 0.34 | 0.34 | 68 | 1017.7 |
| 20260901020708 | 79 | 278 | 14.0 | 20.0 | 0.00 | 0.34 | 0.34 | 73 | 1017.8 |
| 20260901020305 | 79 | 253 | 5.0 | 9.0 | 0.00 | 0.34 | 0.34 | 71 | 1017.5 |
| 20260901020157 | 79 | 258 | 2.0 | 5.0 | 0.00 | 0.34 | 0.34 | 70 | 1017.3 |
| 20260901015727 | 80 | 153 | 1.0 | 5.0 | 0.00 | 0.34 | 0.34 | 69 | 1016.8 |
| 20260901015305 | 80 | 106 | 0.0 | 3.0 | 0.00 | 0.34 | 0.34 | 68 | 1016.8 |
| 20260901015154 | 80 | 106 | 0.0 | 3.0 | 0.00 | 0.34 | 0.34 | 68 | 1016.8 |
| 20260901014704 | 80 | 94 | 1.0 | 4.0 | 0.00 | 0.34 | 0.34 | 70 | 1016.5 |
| 20260901014301 | 81 | 90 | 2.0 | 5.0 | 0.00 | 0.34 | 0.34 | 66 | 1016.2 |
| 20260901014214 | 81 | 86 | 2.0 | 7.0 | 0.00 | 0.34 | 0.34 | 66 | 1016.2 |
| 20260901013703 | 81 | 77 | 4.0 | 8.0 | 0.00 | 0.34 | 0.34 | 66 | 1016.0 |
| 20260901013259 | 81 | 82 | 5.0 | 10.0 | 0.00 | 0.34 | 0.34 | 65 | 1015.8 |
| 20260901013212 | 81 | 75 | 6.0 | 10.0 | 0.00 | 0.34 | 0.34 | 65 | 1015.8 |
| 20260901012701 | 81 | 80 | 5.0 | 8.0 | 0.00 | 0.34 | 0.34 | 65 | 1015.6 |
| 20260901012318 | 80 | 79 | 6.0 | 8.0 | 0.00 | 0.34 | 0.34 | 66 | 1015.5 |
| 20260901012154 | 80 | 88 | 6.0 | 8.0 | 0.00 | 0.34 | 0.34 | 66 | 1015.5 |
| 20260901011702 | 80 | 86 | 3.0 | 5.0 | 0.00 | 0.34 | 0.34 | 68 | 1015.5 |
| 20260901011259 | 80 | 74 | 3.0 | 5.0 | 0.00 | 0.34 | 0.34 | 67 | 1015.6 |
| 20260901011153 | 80 | 73 | 3.0 | 4.0 | 0.00 | 0.34 | 0.34 | 67 | 1015.6 |
| 20260901010703 | 81 | 72 | 3.0 | 5.0 | 0.00 | 0.34 | 0.34 | 67 | 1015.7 |
| 20260901010320 | 81 | 87 | 3.0 | 5.0 | 0.00 | 0.34 | 0.34 | 67 | 1015.7 |
| 20260901010210 | 81 | 82 | 3.0 | 5.0 | 0.00 | 0.34 | 0.34 | 67 | 1015.7 |
| 20260901005700 | 81 | 80 | 3.0 | 4.0 | 0.00 | 0.34 | 0.34 | 67 | 1015.8 |
| 20260901005256 | 81 | 109 | 2.0 | 4.0 | 0.00 | 0.34 | 0.34 | 66 | 1015.9 |
| 20260901005209 | 81 | 107 | 3.0 | 4.0 | 0.00 | 0.34 | 0.34 | 66 | 1015.8 |
| 20260901004658 | 82 | 175 | 2.0 | 6.0 | 0.00 | 0.34 | 0.34 | 65 | 1015.7 |
| 20260901004256 | 82 | 22 | 2.0 | 7.0 | 0.00 | 0.34 | 0.34 | 64 | 1015.6 |
| 20260901004209 | 82 | 162 | 2.0 | 7.0 | 0.00 | 0.34 | 0.34 | 64 | 1015.6 |
| 20260901003718 | 83 | 90 | 4.0 | 10.0 | 0.00 | 0.34 | 0.34 | 63 | 1015.5 |
| 20260901003255 | 83 | 82 | 5.0 | 10.0 | 0.00 | 0.34 | 0.34 | 61 | 1015.4 |
| 20260901003228 | 83 | 95 | 5.0 | 10.0 | 0.00 | 0.34 | 0.34 | 61 | 1015.3 |
| 20260901002656 | 84 | 75 | 6.0 | 8.0 | 0.00 | 0.34 | 0.34 | 61 | 1015.4 |
| 20260901002253 | 84 | 88 | 5.0 | 8.0 | 0.00 | 0.34 | 0.34 | 61 | 1015.5 |
| 20260901002205 | 84 | 97 | 5.0 | 7.0 | 0.00 | 0.34 | 0.34 | 60 | 1015.5 |
| 20260901001659 | 84 | 130 | 3.0 | 7.0 | 0.00 | 0.34 | 0.34 | 60 | 1015.6 |
| 20260901001313 | 85 | 92 | 3.0 | 8.0 | 0.00 | 0.34 | 0.34 | 59 | 1015.6 |
| 20260901001229 | 85 | 105 | 4.0 | 8.0 | 0.00 | 0.34 | 0.34 | 59 | 1015.6 |
| 20260901000658 | 85 | 76 | 4.0 | 8.0 | 0.00 | 0.34 | 0.34 | 59 | 1015.5 |
| 20260901000315 | 85 | 121 | 5.0 | 9.0 | 0.00 | 0.34 | 0.34 | 58 | 1015.5 |
| 20260901000207 | 86 | 98 | 5.0 | 9.0 | 0.00 | 0.34 | 0.34 | 57 | 1015.6 |
| 20260831235657 | 86 | 61 | 6.0 | 9.0 | 0.00 | 0.34 | 0.34 | 57 | 1015.6 |
| 20260831235254 | 86 | 79 | 5.0 | 8.0 | 0.00 | 0.34 | 0.34 | 56 | 1015.6 |
| 20260831235208 | 86 | 76 | 6.0 | 9.0 | 0.00 | 0.34 | 0.34 | 56 | 1015.6 |
| 20260831234656 | 87 | 85 | 6.0 | 11.0 | 0.00 | 0.34 | 0.34 | 56 | 1015.5 |
| 20260831234311 | 87 | 71 | 8.0 | 11.0 | 0.00 | 0.34 | 0.34 | 54 | 1015.6 |
| 20260831234203 | 87 | 76 | 7.0 | 13.0 | 0.00 | 0.34 | 0.34 | 54 | 1015.5 |
| 20260831233711 | 88 | 58 | 5.0 | 13.0 | 0.00 | 0.34 | 0.34 | 52 | 1015.5 |
| 20260831233328 | 88 | 82 | 6.0 | 13.0 | 0.00 | 0.34 | 0.34 | 50 | 1015.4 |
| 20260831233220 | 88 | 5 | 7.0 | 12.0 | 0.00 | 0.34 | 0.34 | 49 | 1015.4 |
| 20260831232708 | 89 | 84 | 8.0 | 11.0 | 0.00 | 0.34 | 0.34 | 51 | 1015.5 |
| 20260831232306 | 89 | 86 | 5.0 | 12.0 | 0.00 | 0.34 | 0.34 | 48 | 1015.5 |
| 20260831232217 | 89 | 82 | 6.0 | 12.0 | 0.00 | 0.34 | 0.34 | 49 | 1015.4 |
| 20260831231706 | 89 | 92 | 7.0 | 11.0 | 0.00 | 0.34 | 0.34 | 51 | 1015.4 |
| 20260831231303 | 89 | 78 | 8.0 | 11.0 | 0.00 | 0.34 | 0.34 | 49 | 1015.3 |
| 20260831231200 | 89 | 88 | 8.0 | 11.0 | 0.00 | 0.34 | 0.34 | 49 | 1015.3 |
| 20260831230710 | 90 | 78 | 8.0 | 15.0 | 0.00 | 0.34 | 0.34 | 48 | 1015.4 |
| 20260831230306 | 90 | 92 | 8.0 | 15.0 | 0.00 | 0.34 | 0.34 | 49 | 1015.3 |
| 20260831230157 | 90 | 74 | 8.0 | 15.0 | 0.00 | 0.34 | 0.34 | 50 | 1015.4 |
| 20260831225727 | 90 | 78 | 9.0 | 12.0 | 0.00 | 0.34 | 0.34 | 49 | 1015.3 |
| 20260831225306 | 90 | 84 | 7.0 | 10.0 | 0.00 | 0.34 | 0.34 | 49 | 1015.4 |
| 20260831225155 | 90 | 84 | 6.0 | 12.0 | 0.00 | 0.34 | 0.34 | 49 | 1015.4 |
| 20260831224705 | 90 | 65 | 5.0 | 13.0 | 0.00 | 0.34 | 0.34 | 49 | 1015.4 |
| 20260831224303 | 90 | 92 | 9.0 | 13.0 | 0.00 | 0.34 | 0.34 | 51 | 1015.4 |
| 20260831224156 | 90 | 69 | 7.0 | 12.0 | 0.00 | 0.34 | 0.34 | 50 | 1015.4 |
| 20260831223706 | 90 | 84 | 7.0 | 12.0 | 0.00 | 0.34 | 0.34 | 49 | 1015.6 |
| 20260831223302 | 90 | 87 | 6.0 | 12.0 | 0.00 | 0.34 | 0.34 | 49 | 1015.6 |
| 20260831223154 | 90 | 78 | 7.0 | 12.0 | 0.00 | 0.34 | 0.34 | 51 | 1015.6 |
| 20260831222708 | 90 | 59 | 7.0 | 16.0 | 0.00 | 0.34 | 0.34 | 50 | 1015.7 |
| 20260831222305 | 90 | 194 | 9.0 | 16.0 | 0.00 | 0.34 | 0.34 | 49 | 1015.7 |
| 20260831222218 | 90 | 116 | 9.0 | 16.0 | 0.00 | 0.34 | 0.34 | 49 | 1015.8 |
| 20260831221727 | 91 | 63 | 9.0 | 13.0 | 0.00 | 0.34 | 0.34 | 49 | 1015.8 |
| 20260831221319 | 91 | 88 | 6.0 | 16.0 | 0.00 | 0.34 | 0.34 | 48 | 1015.8 |
| 20260831221154 | 91 | 242 | 7.0 | 16.0 | 0.00 | 0.34 | 0.34 | 49 | 1015.8 |
| 20260831220704 | 91 | 62 | 7.0 | 12.0 | 0.00 | 0.34 | 0.34 | 48 | 1015.8 |
| 20260831220301 | 91 | 65 | 4.0 | 8.0 | 0.00 | 0.34 | 0.34 | 48 | 1015.9 |
| 20260831220153 | 91 | 51 | 3.0 | 6.0 | 0.00 | 0.34 | 0.34 | 46 | 1015.9 |
| 20260831215705 | 92 | 57 | 3.0 | 5.0 | 0.00 | 0.34 | 0.34 | 44 | 1016.0 |
| 20260831215300 | 92 | 77 | 2.0 | 6.0 | 0.00 | 0.34 | 0.34 | 44 | 1016.1 |
| 20260831215153 | 92 | 142 | 3.0 | 8.0 | 0.00 | 0.34 | 0.34 | 47 | 1016.1 |
| 20260831214725 | 92 | 68 | 1.0 | 8.0 | 0.00 | 0.34 | 0.34 | 42 | 1016.1 |
| 20260831214320 | 92 | 151 | 3.0 | 6.0 | 0.00 | 0.34 | 0.34 | 41 | 1016.2 |
| 20260831214152 | 92 | 34 | 4.0 | 8.0 | 0.00 | 0.34 | 0.34 | 45 | 1016.2 |
| 20260831213701 | 92 | 34 | 3.0 | 8.0 | 0.00 | 0.34 | 0.34 | 47 | 1016.2 |
| 20260831213256 | 92 | 88 | 4.0 | 6.0 | 0.00 | 0.34 | 0.34 | 47 | 1016.1 |
| 20260831213227 | 92 | 45 | 4.0 | 6.0 | 0.00 | 0.34 | 0.34 | 43 | 1016.2 |
| 20260831212656 | 92 | 56 | 3.0 | 9.0 | 0.00 | 0.34 | 0.34 | 43 | 1016.2 |
| 20260831212308 | 92 | 72 | 6.0 | 9.0 | 0.00 | 0.34 | 0.34 | 42 | 1016.2 |
| 20260831212205 | 92 | 61 | 6.0 | 9.0 | 0.00 | 0.34 | 0.34 | 45 | 1016.3 |
| 20260831211655 | 92 | 220 | 1.0 | 9.0 | 0.00 | 0.34 | 0.34 | 41 | 1016.3 |
| 20260831211253 | 91 | 43 | 5.0 | 9.0 | 0.00 | 0.34 | 0.34 | 44 | 1016.4 |
| 20260831211206 | 92 | 44 | 4.0 | 9.0 | 0.00 | 0.34 | 0.34 | 43 | 1016.4 |
| 20260831210657 | 91 | 28 | 4.0 | 6.0 | 0.00 | 0.34 | 0.34 | 45 | 1016.5 |
| 20260831210312 | 91 | 14 | 3.0 | 6.0 | 0.00 | 0.34 | 0.34 | 46 | 1016.5 |
| 20260831210204 | 91 | 329 | 3.0 | 6.0 | 0.00 | 0.34 | 0.34 | 46 | 1016.5 |
| 20260831205713 | 91 | 64 | 4.0 | 6.0 | 0.00 | 0.34 | 0.34 | 47 | 1016.6 |
| 20260831205309 | 91 | 46 | 3.0 | 4.0 | 0.00 | 0.34 | 0.34 | 45 | 1016.6 |
| 20260831205202 | 91 | 72 | 2.0 | 4.0 | 0.00 | 0.34 | 0.34 | 45 | 1016.6 |
| 20260831204653 | 90 | 142 | 2.0 | 5.0 | 0.00 | 0.34 | 0.34 | 44 | 1016.7 |
| 20260831204327 | 91 | 45 | 2.0 | 5.0 | 0.00 | 0.34 | 0.34 | 46 | 1016.8 |
| 20260831204159 | 91 | 86 | 2.0 | 6.0 | 0.00 | 0.34 | 0.34 | 45 | 1016.8 |
| 20260831203709 | 91 | 87 | 3.0 | 6.0 | 0.00 | 0.34 | 0.34 | 49 | 1016.8 |
| 20260831203304 | 90 | 38 | 3.0 | 6.0 | 0.00 | 0.34 | 0.34 | 50 | 1016.8 |
| 20260831203157 | 90 | 61 | 3.0 | 7.0 | 0.00 | 0.34 | 0.34 | 48 | 1016.9 |
| 20260831202709 | 90 | 26 | 4.0 | 7.0 | 0.00 | 0.34 | 0.34 | 50 | 1017.0 |
| 20260831202305 | 90 | 51 | 3.0 | 7.0 | 0.00 | 0.34 | 0.34 | 52 | 1017.1 |
| 20260831202158 | 90 | 26 | 3.0 | 7.0 | 0.00 | 0.34 | 0.34 | 49 | 1017.1 |
| 20260831201706 | 90 | 56 | 2.0 | 8.0 | 0.00 | 0.34 | 0.34 | 51 | 1017.1 |
| 20260831201302 | 90 | 60 | 5.0 | 10.0 | 0.00 | 0.34 | 0.34 | 51 | 1017.2 |
| 20260831201154 | 90 | 62 | 3.0 | 10.0 | 0.00 | 0.34 | 0.34 | 53 | 1017.1 |
| 20260831200724 | 90 | 42 | 4.0 | 10.0 | 0.00 | 0.34 | 0.34 | 47 | 1017.2 |
| 20260831200258 | 90 | 54 | 6.0 | 9.0 | 0.00 | 0.34 | 0.34 | 49 | 1017.2 |
| 20260831200210 | 90 | 63 | 4.0 | 9.0 | 0.00 | 0.34 | 0.34 | 51 | 1017.3 |
| 20260831195659 | 89 | 63 | 3.0 | 10.0 | 0.00 | 0.34 | 0.34 | 52 | 1017.3 |
| 20260831195254 | 90 | 70 | 4.0 | 10.0 | 0.00 | 0.34 | 0.34 | 50 | 1017.4 |
| 20260831195206 | 90 | 51 | 5.0 | 10.0 | 0.00 | 0.34 | 0.34 | 50 | 1017.4 |
| 20260831194655 | 90 | 34 | 4.0 | 9.0 | 0.00 | 0.34 | 0.34 | 48 | 1017.3 |
| 20260831194309 | 89 | 50 | 4.0 | 7.0 | 0.00 | 0.34 | 0.34 | 49 | 1017.3 |
| 20260831194201 | 89 | 38 | 2.0 | 6.0 | 0.00 | 0.34 | 0.34 | 50 | 1017.3 |
| 20260831193710 | 89 | 54 | 4.0 | 6.0 | 0.00 | 0.34 | 0.34 | 49 | 1017.4 |
| 20260831193327 | 89 | 52 | 3.0 | 6.0 | 0.00 | 0.34 | 0.34 | 50 | 1017.4 |
| 20260831193159 | 89 | 57 | 1.0 | 6.0 | 0.00 | 0.34 | 0.34 | 50 | 1017.4 |
| 20260831192727 | 89 | 12 | 3.0 | 6.0 | 0.00 | 0.34 | 0.34 | 50 | 1017.4 |
| 20260831192305 | 89 | 59 | 3.0 | 10.0 | 0.00 | 0.34 | 0.34 | 50 | 1017.4 |
| 20260831192216 | 89 | 94 | 4.0 | 10.0 | 0.00 | 0.34 | 0.34 | 50 | 1017.4 |
| 20260831191708 | 89 | 54 | 6.0 | 10.0 | 0.00 | 0.34 | 0.34 | 53 | 1017.4 |
| 20260831191259 | 90 | 65 | 2.0 | 7.0 | 0.00 | 0.34 | 0.34 | 53 | 1017.5 |
| 20260831191155 | 90 | 12 | 4.0 | 7.0 | 0.00 | 0.34 | 0.34 | 57 | 1017.6 |
| 20260831190706 | 89 | 116 | 2.0 | 7.0 | 0.00 | 0.34 | 0.34 | 54 | 1017.6 |
| 20260831190303 | 89 | 53 | 5.0 | 7.0 | 0.00 | 0.34 | 0.34 | 52 | 1017.6 |
| 20260831190155 | 89 | 50 | 3.0 | 5.0 | 0.00 | 0.34 | 0.34 | 53 | 1017.6 |
| 20260831185725 | 89 | 290 | 3.0 | 5.0 | 0.00 | 0.34 | 0.34 | 55 | 1017.7 |
| 20260831185259 | 89 | 229 | 2.0 | 8.0 | 0.00 | 0.34 | 0.34 | 53 | 1017.7 |
| 20260831185153 | 89 | 288 | 2.0 | 8.0 | 0.00 | 0.34 | 0.34 | 55 | 1017.7 |
| 20260831184703 | 88 | 304 | 5.0 | 8.0 | 0.00 | 0.34 | 0.34 | 58 | 1017.7 |
| 20260831184300 | 88 | 250 | 3.0 | 8.0 | 0.00 | 0.34 | 0.34 | 52 | 1017.8 |
| 20260831184153 | 88 | 286 | 3.0 | 8.0 | 0.00 | 0.34 | 0.34 | 51 | 1017.8 |
| 20260831183703 | 88 | 308 | 4.0 | 8.0 | 0.00 | 0.34 | 0.34 | 54 | 1017.8 |
| 20260831183259 | 88 | 309 | 4.0 | 8.0 | 0.00 | 0.34 | 0.34 | 58 | 1017.7 |
| 20260831183232 | 88 | 329 | 3.0 | 8.0 | 0.00 | 0.34 | 0.34 | 56 | 1017.7 |
| 20260831182705 | 88 | 263 | 4.0 | 9.0 | 0.00 | 0.34 | 0.34 | 55 | 1017.8 |
| 20260831182258 | 87 | 262 | 6.0 | 10.0 | 0.00 | 0.34 | 0.34 | 64 | 1017.8 |
| 20260831182215 | 87 | 306 | 6.0 | 10.0 | 0.00 | 0.34 | 0.34 | 57 | 1017.8 |
| 20260831181723 | 87 | 307 | 6.0 | 10.0 | 0.00 | 0.34 | 0.34 | 60 | 1017.8 |
| 20260831181258 | 87 | 319 | 5.0 | 8.0 | 0.00 | 0.34 | 0.34 | 58 | 1017.8 |
| 20260831181210 | 87 | 321 | 5.0 | 8.0 | 0.00 | 0.34 | 0.34 | 60 | 1017.8 |
| 20260831180700 | 87 | 347 | 4.0 | 10.0 | 0.00 | 0.34 | 0.34 | 57 | 1017.9 |
| 20260831180310 | 87 | 289 | 4.0 | 10.0 | 0.00 | 0.34 | 0.34 | 58 | 1017.9 |
| 20260831180202 | 87 | 309 | 4.0 | 10.0 | 0.00 | 0.34 | 0.34 | 57 | 1017.9 |
| 20260831175712 | 86 | 315 | 6.0 | 9.0 | 0.00 | 0.34 | 0.34 | 60 | 1017.9 |
| 20260831175309 | 86 | 343 | 5.0 | 9.0 | 0.00 | 0.34 | 0.34 | 60 | 1018.0 |
| 20260831175202 | 86 | 349 | 5.0 | 9.0 | 0.00 | 0.34 | 0.34 | 60 | 1018.0 |
| 20260831174712 | 86 | 306 | 5.0 | 10.0 | 0.00 | 0.34 | 0.34 | 63 | 1018.0 |
| 20260831174307 | 86 | 314 | 5.0 | 10.0 | 0.00 | 0.34 | 0.34 | 62 | 1018.0 |
| 20260831174159 | 86 | 338 | 4.0 | 8.0 | 0.00 | 0.34 | 0.34 | 62 | 1018.1 |
| 20260831173653 | 86 | 294 | 4.0 | 8.0 | 0.00 | 0.34 | 0.34 | 62 | 1018.1 |
| 20260831173306 | 86 | 311 | 6.0 | 9.0 | 0.00 | 0.34 | 0.34 | 63 | 1018.1 |
| 20260831173203 | 86 | 304 | 6.0 | 9.0 | 0.00 | 0.34 | 0.34 | 61 | 1018.1 |
| 20260831172713 | 85 | 309 | 4.0 | 9.0 | 0.00 | 0.34 | 0.34 | 63 | 1018.1 |
| 20260831172308 | 85 | 298 | 5.0 | 8.0 | 0.00 | 0.34 | 0.34 | 65 | 1018.1 |
| 20260831172201 | 85 | 284 | 6.0 | 8.0 | 0.00 | 0.34 | 0.34 | 65 | 1018.1 |
| 20260831171711 | 84 | 360 | 3.0 | 9.0 | 0.00 | 0.34 | 0.34 | 61 | 1018.1 |
| 20260831171308 | 84 | 325 | 3.0 | 9.0 | 0.00 | 0.34 | 0.34 | 60 | 1018.2 |
| 20260831171202 | 84 | 360 | 3.0 | 9.0 | 0.00 | 0.34 | 0.34 | 60 | 1018.2 |
| 20260831170711 | 84 | 337 | 3.0 | 5.0 | 0.00 | 0.34 | 0.34 | 59 | 1018.2 |
| 20260831170307 | 84 | 279 | 2.0 | 5.0 | 0.00 | 0.34 | 0.34 | 62 | 1018.2 |
| 20260831170158 | 84 | 306 | 1.0 | 5.0 | 0.00 | 0.34 | 0.34 | 66 | 1018.2 |
| 20260831165726 | 84 | 327 | 2.0 | 7.0 | 0.00 | 0.34 | 0.34 | 62 | 1018.3 |
| 20260831165323 | 84 | 228 | 4.0 | 7.0 | 0.00 | 0.34 | 0.34 | 61 | 1018.3 |
| 20260831165155 | 84 | 296 | 4.0 | 7.0 | 0.00 | 0.34 | 0.34 | 62 | 1018.3 |
| 20260831164706 | 84 | 284 | 3.0 | 8.0 | 0.00 | 0.34 | 0.34 | 59 | 1018.4 |
| 20260831164302 | 84 | 294 | 2.0 | 8.0 | 0.00 | 0.34 | 0.34 | 64 | 1018.4 |
| 20260831164159 | 83 | 339 | 4.0 | 8.0 | 0.00 | 0.34 | 0.34 | 64 | 1018.5 |
| 20260831163710 | 83 | 303 | 3.0 | 8.0 | 0.00 | 0.34 | 0.34 | 59 | 1018.4 |
| 20260831163306 | 83 | 291 | 2.0 | 9.0 | 0.00 | 0.34 | 0.34 | 64 | 1018.4 |
| 20260831163219 | 83 | 216 | 4.0 | 9.0 | 0.00 | 0.34 | 0.34 | 64 | 1018.3 |
| 20260831162708 | 83 | 317 | 4.0 | 8.0 | 0.00 | 0.34 | 0.34 | 64 | 1018.4 |
| 20260831162306 | 82 | 295 | 5.0 | 8.0 | 0.00 | 0.34 | 0.34 | 65 | 1018.3 |
| 20260831162156 | 82 | 310 | 5.0 | 8.0 | 0.00 | 0.34 | 0.34 | 67 | 1018.4 |
| 20260831161707 | 82 | 317 | 4.0 | 8.0 | 0.00 | 0.34 | 0.34 | 66 | 1018.3 |
| 20260831161303 | 82 | 316 | 5.0 | 8.0 | 0.00 | 0.34 | 0.34 | 62 | 1018.2 |
| 20260831161156 | 82 | 317 | 4.0 | 7.0 | 0.00 | 0.34 | 0.34 | 62 | 1018.2 |
| 20260831160705 | 82 | 336 | 3.0 | 6.0 | 0.00 | 0.34 | 0.34 | 67 | 1018.1 |
| 20260831160301 | 81 | 275 | 3.0 | 7.0 | 0.00 | 0.34 | 0.34 | 62 | 1018.1 |
| 20260831160214 | 81 | 236 | 3.0 | 7.0 | 0.00 | 0.34 | 0.34 | 65 | 1018.1 |
| 20260831155701 | 81 | 217 | 4.0 | 8.0 | 0.00 | 0.34 | 0.34 | 65 | 1018.0 |
| 20260831155258 | 81 | 328 | 5.0 | 8.0 | 0.00 | 0.34 | 0.34 | 65 | 1018.0 |
| 20260831155215 | 81 | 309 | 5.0 | 7.0 | 0.00 | 0.34 | 0.34 | 68 | 1018.0 |
| 20260831154704 | 80 | 263 | 3.0 | 7.0 | 0.00 | 0.34 | 0.34 | 69 | 1018.0 |
| 20260831154259 | 80 | 281 | 4.0 | 7.0 | 0.00 | 0.34 | 0.34 | 68 | 1017.9 |
| 20260831154213 | 80 | 278 | 4.0 | 7.0 | 0.00 | 0.34 | 0.34 | 68 | 1018.0 |
| 20260831153701 | 79 | 254 | 3.0 | 5.0 | 0.00 | 0.34 | 0.34 | 68 | 1017.9 |
| 20260831153258 | 79 | 279 | 3.0 | 5.0 | 0.00 | 0.34 | 0.34 | 64 | 1017.9 |
| 20260831153211 | 79 | 266 | 3.0 | 8.0 | 0.00 | 0.34 | 0.34 | 64 | 1018.0 |
| 20260831152719 | 79 | 321 | 3.0 | 8.0 | 0.00 | 0.34 | 0.34 | 70 | 1018.0 |
| 20260831152255 | 78 | 288 | 5.0 | 8.0 | 0.00 | 0.34 | 0.34 | 68 | 1017.9 |
| 20260831152227 | 78 | 263 | 4.0 | 7.0 | 0.00 | 0.34 | 0.34 | 68 | 1017.9 |
| 20260831151657 | 77 | 287 | 3.0 | 5.0 | 0.00 | 0.34 | 0.34 | 75 | 1017.9 |
| 20260831151331 | 77 | 250 | 3.0 | 8.0 | 0.00 | 0.34 | 0.34 | 79 | 1017.9 |
| 20260831151223 | 76 | 211 | 3.0 | 8.0 | 0.00 | 0.34 | 0.34 | 77 | 1017.9 |
| 20260831150713 | 76 | 288 | 5.0 | 8.0 | 0.00 | 0.34 | 0.34 | 80 | 1017.9 |
| 20260831150329 | 75 | 257 | 5.0 | 7.0 | 0.00 | 0.34 | 0.34 | 83 | 1018.0 |
| 20260831150201 | 75 | 248 | 5.0 | 7.0 | 0.00 | 0.34 | 0.34 | 83 | 1018.0 |
| 20260831145712 | 74 | 277 | 4.0 | 8.0 | 0.00 | 0.34 | 0.34 | 85 | 1018.1 |
| 20260831145309 | 74 | 251 | 5.0 | 8.0 | 0.00 | 0.34 | 0.34 | 85 | 1018.1 |
| 20260831145201 | 74 | 252 | 4.0 | 8.0 | 0.00 | 0.34 | 0.34 | 87 | 1018.0 |
| 20260831144655 | 73 | 283 | 4.0 | 7.0 | 0.00 | 0.34 | 0.34 | 88 | 1018.1 |
| 20260831144308 | 72 | 269 | 5.0 | 7.0 | 0.00 | 0.34 | 0.34 | 89 | 1018.1 |
| 20260831144206 | 72 | 288 | 4.0 | 7.0 | 0.00 | 0.34 | 0.34 | 89 | 1018.1 |
| 20260831143655 | 71 | 308 | 3.0 | 7.0 | 0.00 | 0.34 | 0.34 | 91 | 1018.1 |
| 20260831143331 | 70 | 296 | 4.0 | 7.0 | 0.00 | 0.34 | 0.34 | 93 | 1018.1 |
| 20260831143200 | 70 | 286 | 4.0 | 7.0 | 0.00 | 0.34 | 0.34 | 92 | 1018.2 |
| 20260831142708 | 69 | 279 | 4.0 | 7.0 | 0.00 | 0.34 | 0.34 | 94 | 1018.2 |
| 20260831142325 | 69 | 275 | 4.0 | 7.0 | 0.00 | 0.34 | 0.34 | 95 | 1018.1 |
| 20260831142217 | 69 | 257 | 4.0 | 7.0 | 0.00 | 0.34 | 0.34 | 95 | 1018.1 |
| 20260831141706 | 68 | 281 | 3.0 | 7.0 | 0.00 | 0.34 | 0.34 | 95 | 1018.2 |
| 20260831141303 | 67 | 263 | 4.0 | 8.0 | 0.00 | 0.34 | 0.34 | 94 | 1018.2 |
| 20260831141156 | 68 | 260 | 4.0 | 8.0 | 0.00 | 0.34 | 0.34 | 94 | 1018.3 |
| 20260831140705 | 68 | 264 | 4.0 | 9.0 | 0.00 | 0.34 | 0.34 | 94 | 1018.3 |
| 20260831140302 | 68 | 275 | 4.0 | 9.0 | 0.00 | 0.34 | 0.34 | 94 | 1018.2 |
| 20260831140155 | 68 | 266 | 4.0 | 9.0 | 0.00 | 0.34 | 0.34 | 94 | 1018.3 |
| 20260831135707 | 68 | 275 | 5.0 | 8.0 | 0.00 | 0.34 | 0.34 | 94 | 1018.2 |
| 20260831135306 | 68 | 291 | 4.0 | 8.0 | 0.00 | 0.34 | 0.34 | 94 | 1018.2 |
| 20260831135159 | 68 | 311 | 5.0 | 8.0 | 0.00 | 0.34 | 0.34 | 94 | 1018.1 |
| 20260831134709 | 68 | 314 | 6.0 | 8.0 | 0.00 | 0.34 | 0.34 | 95 | 1018.0 |
| 20260831134306 | 68 | 295 | 5.0 | 8.0 | 0.00 | 0.34 | 0.34 | 95 | 1018.0 |
| 20260831134159 | 68 | 283 | 5.0 | 8.0 | 0.00 | 0.34 | 0.34 | 96 | 1018.0 |
| 20260831133710 | 68 | 321 | 4.0 | 7.0 | 0.00 | 0.34 | 0.34 | 97 | 1018.0 |
| 20260831133308 | 67 | 304 | 4.0 | 6.0 | 0.00 | 0.34 | 0.34 | 97 | 1017.9 |
| 20260831133201 | 67 | 298 | 3.0 | 6.0 | 0.00 | 0.34 | 0.34 | 98 | 1017.9 |
| 20260831132711 | 67 | 297 | 4.0 | 6.0 | 0.00 | 0.34 | 0.34 | 98 | 1017.8 |
| 20260831132308 | 66 | 345 | 3.0 | 4.0 | 0.00 | 0.34 | 0.34 | 98 | 1017.7 |
| 20260831132200 | 66 | 9 | 2.0 | 3.0 | 0.00 | 0.34 | 0.34 | 98 | 1017.7 |
| 20260831131729 | 65 | 294 | 0.0 | 2.0 | 0.00 | 0.34 | 0.34 | 98 | 1017.6 |
| 20260831131302 | 65 | 294 | 0.0 | 2.0 | 0.00 | 0.34 | 0.34 | 97 | 1017.4 |
| 20260831131155 | 65 | 294 | 0.0 | 2.0 | 0.00 | 0.34 | 0.34 | 97 | 1017.4 |
| 20260831130705 | 65 | 294 | 2.0 | 4.0 | 0.00 | 0.34 | 0.34 | 97 | 1017.4 |
| 20260831130301 | 65 | 265 | 2.0 | 5.0 | 0.00 | 0.34 | 0.34 | 97 | 1017.5 |
| 20260831130159 | 65 | 264 | 3.0 | 5.0 | 0.00 | 0.34 | 0.34 | 97 | 1017.4 |
| 20260831125709 | 65 | 250 | 4.0 | 6.0 | 0.00 | 0.34 | 0.34 | 98 | 1017.6 |
| 20260831125306 | 65 | 250 | 4.0 | 5.0 | 0.00 | 0.34 | 0.34 | 98 | 1017.7 |
| 20260831125156 | 65 | 248 | 4.0 | 6.0 | 0.00 | 0.34 | 0.34 | 98 | 1017.7 |
| 20260831124705 | 65 | 250 | 3.0 | 5.0 | 0.00 | 0.34 | 0.34 | 98 | 1017.4 |
| 20260831124302 | 64 | 248 | 3.0 | 7.0 | 0.00 | 0.34 | 0.34 | 98 | 1017.4 |
| 20260831124155 | 64 | 263 | 3.0 | 7.0 | 0.00 | 0.34 | 0.34 | 98 | 1017.4 |
| 20260831123705 | 64 | 263 | 4.0 | 7.0 | 0.00 | 0.34 | 0.34 | 98 | 1017.6 |
| 20260831123302 | 64 | 272 | 4.0 | 6.0 | 0.00 | 0.34 | 0.34 | 98 | 1017.4 |
| 20260831123216 | 64 | 273 | 4.0 | 6.0 | 0.00 | 0.34 | 0.34 | 97 | 1017.4 |
| 20260831122705 | 64 | 244 | 3.0 | 4.0 | 0.00 | 0.34 | 0.34 | 97 | 1017.4 |
| 20260831122301 | 64 | 244 | 3.0 | 3.0 | 0.00 | 0.34 | 0.34 | 97 | 1017.4 |
| 20260831122153 | 64 | 300 | 2.0 | 3.0 | 0.00 | 0.34 | 0.34 | 97 | 1017.3 |
| 20260831121702 | 64 | 213 | 1.0 | 5.0 | 0.00 | 0.34 | 0.34 | 97 | 1017.3 |
| 20260831121318 | 64 | 213 | 2.0 | 7.0 | 0.00 | 0.34 | 0.34 | 97 | 1017.4 |
| 20260831121230 | 64 | 213 | 3.0 | 7.0 | 0.00 | 0.34 | 0.34 | 97 | 1017.4 |
| 20260831120703 | 64 | 220 | 3.0 | 7.0 | 0.00 | 0.34 | 0.34 | 97 | 1017.5 |
| 20260831120254 | 64 | 297 | 5.0 | 12.0 | 0.00 | 0.34 | 0.34 | 97 | 1017.7 |
| 20260831120210 | 64 | 308 | 4.0 | 12.0 | 0.00 | 0.34 | 0.34 | 97 | 1017.6 |
| 20260831115701 | 64 | 310 | 8.0 | 12.0 | 0.00 | 0.34 | 0.34 | 97 | 1017.6 |
| 20260831115257 | 64 | 302 | 7.0 | 10.0 | 0.00 | 0.34 | 0.34 | 97 | 1017.6 |
| 20260831115211 | 64 | 312 | 6.0 | 10.0 | 0.00 | 0.34 | 0.34 | 97 | 1017.6 |
| 20260831114701 | 64 | 319 | 3.0 | 10.0 | 0.00 | 0.34 | 0.34 | 97 | 1017.4 |
| 20260831114257 | 64 | 313 | 6.0 | 9.0 | 0.00 | 0.34 | 0.34 | 96 | 1017.3 |
| 20260831114230 | 64 | 336 | 5.0 | 9.0 | 0.00 | 0.34 | 0.34 | 96 | 1017.3 |
| 20260831113659 | 64 | 173 | 2.0 | 11.0 | 0.00 | 0.34 | 0.34 | 97 | 1017.0 |
| 20260831113256 | 64 | 347 | 6.0 | 11.0 | 0.00 | 0.34 | 0.34 | 96 | 1017.1 |
| 20260831113208 | 64 | 360 | 7.0 | 11.0 | 0.00 | 0.34 | 0.34 | 96 | 1017.1 |
| 20260831112658 | 64 | 295 | 1.0 | 4.0 | 0.00 | 0.34 | 0.34 | 96 | 1017.0 |
| 20260831112255 | 64 | 146 | 1.0 | 4.0 | 0.00 | 0.34 | 0.34 | 96 | 1016.7 |
| 20260831112208 | 64 | 146 | 1.0 | 4.0 | 0.00 | 0.34 | 0.34 | 96 | 1016.7 |
| 20260831111702 | 64 | 169 | 3.0 | 5.0 | 0.00 | 0.34 | 0.34 | 96 | 1016.6 |
| 20260831111255 | 64 | 186 | 2.0 | 5.0 | 0.00 | 0.34 | 0.34 | 95 | 1016.5 |
| 20260831111212 | 64 | 180 | 2.0 | 5.0 | 0.00 | 0.34 | 0.34 | 95 | 1016.6 |
| 20260831110703 | 65 | 164 | 2.0 | 5.0 | 0.00 | 0.34 | 0.34 | 95 | 1016.4 |
| 20260831110320 | 65 | 140 | 4.0 | 7.0 | 0.00 | 0.34 | 0.34 | 95 | 1016.2 |
| 20260831110212 | 65 | 144 | 3.0 | 7.0 | 0.00 | 0.34 | 0.34 | 95 | 1016.2 |
| 20260831105701 | 65 | 192 | 4.0 | 10.0 | 0.00 | 0.34 | 0.34 | 95 | 1016.3 |
| 20260831105258 | 65 | 140 | 5.0 | 11.0 | 0.00 | 0.34 | 0.34 | 95 | 1016.1 |
| 20260831105211 | 65 | 150 | 6.0 | 11.0 | 0.00 | 0.34 | 0.34 | 96 | 1016.1 |
| 20260831104701 | 65 | 157 | 8.0 | 11.0 | 0.00 | 0.34 | 0.34 | 96 | 1015.9 |
| 20260831104257 | 66 | 142 | 7.0 | 12.0 | 0.00 | 0.34 | 0.34 | 96 | 1016.0 |
| 20260831104230 | 66 | 159 | 7.0 | 12.0 | 0.00 | 0.34 | 0.34 | 96 | 1016.0 |
| 20260831103658 | 66 | 142 | 8.0 | 12.0 | 0.00 | 0.34 | 0.34 | 97 | 1015.8 |
| 20260831103255 | 66 | 144 | 7.0 | 9.0 | 0.00 | 0.34 | 0.34 | 97 | 1015.8 |
| 20260831103228 | 66 | 152 | 6.0 | 9.0 | 0.00 | 0.34 | 0.34 | 97 | 1015.8 |
| 20260831102717 | 66 | 140 | 6.0 | 9.0 | 0.00 | 0.34 | 0.34 | 97 | 1015.9 |
| 20260831102312 | 66 | 160 | 5.0 | 9.0 | 0.00 | 0.34 | 0.34 | 97 | 1015.9 |
| 20260831102204 | 66 | 150 | 6.0 | 9.0 | 0.00 | 0.34 | 0.34 | 97 | 1015.9 |
| 20260831101734 | 66 | 153 | 8.0 | 9.0 | 0.00 | 0.34 | 0.34 | 97 | 1015.8 |
| 20260831101309 | 66 | 142 | 5.0 | 8.0 | 0.00 | 0.34 | 0.34 | 97 | 1015.9 |
| 20260831101206 | 66 | 143 | 5.0 | 8.0 | 0.00 | 0.34 | 0.34 | 97 | 1015.9 |
| 20260831100654 | 66 | 136 | 4.0 | 7.0 | 0.00 | 0.34 | 0.34 | 96 | 1016.0 |
| 20260831100325 | 66 | 140 | 2.0 | 4.0 | 0.00 | 0.34 | 0.34 | 96 | 1015.9 |
| 20260831100200 | 66 | 151 | 1.0 | 4.0 | 0.00 | 0.34 | 0.34 | 96 | 1015.9 |
| 20260831095710 | 66 | 215 | 2.0 | 5.0 | 0.00 | 0.34 | 0.34 | 96 | 1015.8 |
| 20260831095307 | 66 | 215 | 4.0 | 7.0 | 0.00 | 0.34 | 0.34 | 96 | 1015.9 |
| 20260831095200 | 66 | 232 | 3.0 | 7.0 | 0.00 | 0.34 | 0.34 | 96 | 1015.8 |
| 20260831094711 | 66 | 265 | 3.0 | 7.0 | 0.00 | 0.34 | 0.34 | 96 | 1015.8 |
| 20260831094308 | 66 | 153 | 3.0 | 4.0 | 0.00 | 0.34 | 0.34 | 96 | 1015.8 |
| 20260831094221 | 66 | 172 | 2.0 | 4.0 | 0.00 | 0.34 | 0.34 | 96 | 1015.8 |
| 20260831093730 | 66 | 127 | 1.0 | 2.0 | 0.00 | 0.34 | 0.34 | 95 | 1015.8 |
| 20260831093306 | 66 | 127 | 1.0 | 4.0 | 0.00 | 0.34 | 0.34 | 95 | 1015.8 |
| 20260831093159 | 66 | 127 | 1.0 | 5.0 | 0.00 | 0.34 | 0.34 | 95 | 1015.7 |
| 20260831092709 | 66 | 90 | 1.0 | 5.0 | 0.00 | 0.34 | 0.34 | 95 | 1015.6 |
| 20260831092306 | 66 | 82 | 4.0 | 5.0 | 0.00 | 0.34 | 0.34 | 95 | 1015.5 |
| 20260831092156 | 66 | 72 | 5.0 | 6.0 | 0.00 | 0.34 | 0.34 | 95 | 1015.5 |
| 20260831091707 | 66 | 81 | 2.0 | 3.0 | 0.00 | 0.34 | 0.34 | 95 | 1015.8 |
| 20260831091303 | 66 | 81 | 1.0 | 3.0 | 0.00 | 0.34 | 0.34 | 94 | 1016.1 |
| 20260831091200 | 66 | 81 | 0.0 | 3.0 | 0.00 | 0.34 | 0.34 | 94 | 1016.1 |
| 20260831090707 | 66 | 81 | 0.0 | 4.0 | 0.00 | 0.34 | 0.34 | 94 | 1016.3 |
| 20260831090303 | 66 | 81 | 1.0 | 5.0 | 0.01 | 0.34 | 0.34 | 94 | 1016.4 |
| 20260831090155 | 66 | 81 | 1.0 | 5.0 | 0.01 | 0.34 | 0.34 | 94 | 1016.4 |
| 20260831085706 | 66 | 75 | 4.0 | 4.0 | 0.01 | 0.34 | 0.34 | 94 | 1016.4 |
| 20260831085306 | 66 | 82 | 3.0 | 6.0 | 0.01 | 0.34 | 0.34 | 94 | 1016.5 |
| 20260831085234 | 66 | 82 | 2.0 | 7.0 | 0.01 | 0.34 | 0.34 | 94 | 1016.5 |
| 20260831084703 | 66 | 67 | 3.0 | 7.0 | 0.01 | 0.34 | 0.34 | 94 | 1016.5 |
| 20260831084319 | 66 | 61 | 6.0 | 8.0 | 0.01 | 0.34 | 0.34 | 95 | 1016.6 |
| 20260831084210 | 66 | 65 | 6.0 | 8.0 | 0.01 | 0.34 | 0.34 | 95 | 1016.5 |
| 20260831083700 | 65 | 35 | 5.0 | 6.0 | 0.01 | 0.34 | 0.34 | 95 | 1016.6 |
| 20260831083257 | 65 | 56 | 2.0 | 4.0 | 0.02 | 0.34 | 0.34 | 95 | 1016.7 |
| 20260831083210 | 65 | 317 | 2.0 | 6.0 | 0.02 | 0.34 | 0.34 | 95 | 1016.8 |
| 20260831082658 | 65 | 10 | 2.0 | 9.0 | 0.02 | 0.34 | 0.34 | 95 | 1017.0 |
| 20260831082313 | 65 | 344 | 5.0 | 9.0 | 0.03 | 0.34 | 0.34 | 95 | 1016.9 |
| 20260831082208 | 65 | 328 | 5.0 | 9.0 | 0.03 | 0.34 | 0.34 | 95 | 1016.9 |
| 20260831081718 | 65 | 349 | 5.0 | 8.0 | 0.05 | 0.34 | 0.34 | 95 | 1017.1 |
| 20260831081309 | 65 | 355 | 5.0 | 8.0 | 0.06 | 0.34 | 0.34 | 95 | 1017.6 |
| 20260831081205 | 65 | 355 | 5.0 | 6.0 | 0.06 | 0.34 | 0.34 | 95 | 1017.6 |
| 20260831080713 | 65 | 299 | 1.0 | 4.0 | 0.07 | 0.34 | 0.34 | 94 | 1018.0 |
| 20260831080309 | 65 | 326 | 1.0 | 9.0 | 0.09 | 0.33 | 0.33 | 94 | 1018.0 |
| 20260831080202 | 65 | 326 | 2.0 | 10.0 | 0.09 | 0.33 | 0.33 | 94 | 1018.0 |
| 20260831075712 | 65 | 56 | 3.0 | 11.0 | 0.15 | 0.33 | 0.33 | 94 | 1017.6 |
| 20260831075309 | 65 | 62 | 8.0 | 11.0 | 0.17 | 0.33 | 0.33 | 94 | 1017.4 |
| 20260831075222 | 65 | 86 | 8.0 | 11.0 | 0.21 | 0.33 | 0.33 | 93 | 1017.4 |
| 20260831074710 | 65 | 103 | 9.0 | 11.0 | 0.27 | 0.33 | 0.33 | 94 | 1017.4 |
| 20260831074307 | 65 | 78 | 7.0 | 10.0 | 0.32 | 0.33 | 0.33 | 94 | 1017.6 |
| 20260831074159 | 65 | 85 | 5.0 | 10.0 | 0.32 | 0.33 | 0.33 | 94 | 1017.6 |
| 20260831073709 | 65 | 55 | 7.0 | 11.0 | 0.32 | 0.33 | 0.33 | 94 | 1017.6 |
| 20260831073306 | 66 | 62 | 6.0 | 11.0 | 0.31 | 0.32 | 0.32 | 94 | 1017.7 |
| 20260831073201 | 66 | 30 | 6.0 | 11.0 | 0.31 | 0.32 | 0.32 | 94 | 1017.8 |
| 20260831072711 | 66 | 48 | 4.0 | 12.0 | 0.31 | 0.32 | 0.32 | 93 | 1017.6 |
| 20260831072321 | 66 | 18 | 9.0 | 12.0 | 0.30 | 0.31 | 0.31 | 93 | 1017.4 |
| 20260831072155 | 66 | 34 | 8.0 | 12.0 | 0.30 | 0.31 | 0.31 | 93 | 1017.4 |